Weather History for Belgrade Nikola Tesla, Serbia

Change the Weather History Date:

Tuesday, October 2, 2012

  Actual Average Record
Temperature  
Mean Temperature 72 °F -  
Max Temperature 82 °F 61 °F 82 °F (2012)
Min Temperature 60 °F 44 °F 44 °F (2002)
Cooling Degree Days 7    
Growing Degree Days 22 (Base 50)    
Moisture  
Dew Point 58 °F    
Average Humidity 64    
Maximum Humidity 100    
Minimum Humidity 34    
Precipitation  
Precipitation 0.04 in - - ()
Sea Level Pressure  
Sea Level Pressure 29.99 in    
Wind  
Wind Speed 7 mph ()    
Max Wind Speed 26 mph    
Max Gust Speed -    
Visibility 6.6 miles    
Events Rain , Thunderstorm    
Averages and records for this station are not official NWS values.
T = Trace of Precipitation, MM = Missing Value Source: Averaged Metar Reports

Daily Weather History Graph

Daily Weather History Graph

Search for Another Location

Airport:

Trip Planner

Search our weather history database for the weather conditions in past years. The results will help you decide how hot, cold, wet, or windy it might be!

Date:

Astronomy

Oct. 02, 2012 Rise Set
Actual Time 6:38 AM CEST 6:17 PM CEST
Civil Twilight 6:09 AM CEST 6:46 PM CEST
Nautical Twilight 5:35 AM CEST 7:20 PM CEST
Astronomical Twilight 5:00 AM CEST 7:54 PM CEST
Moon 7:10 PM CEST 8:55 AM CEST
Length of Visible Light 12h 37m
Length of Day
11h 38m
Waning Gibbous, 95% of the Moon is Illuminated
Oct 2
Waning Gibbous
Oct 8
Last Quarter
Oct 15
New
Oct 22
First Quarter
Oct 29
Full

Hourly Weather History & Observations

Time (CEST) Temp. Heat Index Dew Point Humidity Pressure Visibility Wind Dir Wind Speed Gust Speed Precip Events Conditions
12:00 AM 71.6 °F - 57.2 °F 60% 30.04 in - WNW 4.6 mph - N/A   Clear
12:30 AM 71.6 °F - 55.4 °F 57% 30.01 in - North 3.5 mph - N/A   Clear
1:00 AM 69.8 °F - 55.4 °F 60% 30.01 in - Variable 2.3 mph - N/A   Clear
1:30 AM 68.0 °F - 57.2 °F 68% 30.01 in - East 8.1 mph - N/A   Clear
2:00 AM 72 °F - 55 °F 46% 30.02 in 6 mi East 8.9 mph - -   Partly Cloudy
2:00 AM 71.6 °F - 55.4 °F 57% 30.01 in - East 9.2 mph - N/A   Clear
2:30 AM 71.6 °F - 55.4 °F 57% 30.01 in - East 10.4 mph - N/A   Clear
3:00 AM 71.6 °F - 53.6 °F 53% 30.01 in - East 5.8 mph - N/A   Clear
3:30 AM 71.6 °F - 53.6 °F 53% 29.98 in - East 8.1 mph - N/A   Clear
4:00 AM 71.6 °F - 53.6 °F 53% 29.98 in - East 9.2 mph - N/A   Clear
4:30 AM 71.6 °F - 53.6 °F 53% 29.98 in - ENE 6.9 mph - N/A   Clear
5:00 AM 71 °F - 54 °F 45% 29.99 in 6 mi East 4.5 mph - -   Mostly Cloudy
5:00 AM 69.8 °F - 53.6 °F 56% 29.98 in - East 4.6 mph - N/A   Clear
5:30 AM 69.8 °F - 55.4 °F 60% 29.98 in - ENE 4.6 mph - N/A   Clear
6:00 AM 69.8 °F - 55.4 °F 60% 29.98 in 6.2 mi East 10.4 mph - N/A   Partly Cloudy
6:30 AM 71.6 °F - 55.4 °F 57% 29.98 in 6.2 mi East 10.4 mph - N/A   Partly Cloudy
7:00 AM 71.6 °F - 53.6 °F 53% 29.98 in 6.2 mi SE 8.1 mph - N/A   Partly Cloudy
7:30 AM 69.8 °F - 55.4 °F 60% 29.98 in - WSW 3.5 mph - N/A   Clear
8:00 AM 69 °F - 55 °F 52% 29.99 in 12 mi West 4.5 mph - -   Partly Cloudy
8:00 AM 68.0 °F - 57.2 °F 68% 29.98 in - WNW 5.8 mph - N/A   Clear
8:30 AM 71.6 °F - 53.6 °F 53% 29.98 in - SSE 10.4 mph - N/A   Clear
9:00 AM 71.6 °F - 53.6 °F 53% 29.98 in - South 6.9 mph - N/A   Clear
9:30 AM 73.4 °F - 55.4 °F 53% 29.98 in - SSE 6.9 mph - N/A   Clear
10:00 AM 75.2 °F - 55.4 °F 50% 30.01 in - South 8.1 mph - N/A   Clear
10:30 AM 75.2 °F - 57.2 °F 53% 29.98 in - SW 8.1 mph - N/A   Clear
11:00 AM 75 °F - 58 °F 44% 29.99 in 12 mi SW 4.5 mph - -   Scattered Clouds
11:00 AM 75.2 °F - 57.2 °F 53% 29.98 in - SW 6.9 mph - N/A   Clear
11:30 AM 75.2 °F - 59.0 °F 57% 29.98 in - SSW 6.9 mph - N/A   Clear
12:00 PM 77.0 °F - 59.0 °F 54% 29.98 in - Variable 5.8 mph - N/A   Clear
12:30 PM 78.8 °F - 59.0 °F 51% 29.95 in - Variable 4.6 mph - N/A   Clear
1:00 PM 78.8 °F - 57.2 °F 47% 29.95 in - WSW 4.6 mph - N/A   Clear
1:30 PM 80.6 °F 80.8 °F 57.2 °F 45% 29.95 in - WSW 4.6 mph - N/A   Clear
2:00 PM 81 °F - 57 °F 34% 29.92 in 9 mi SW 2.2 mph - -   Scattered Clouds
2:00 PM 82.4 °F 82.0 °F 57.2 °F 42% 29.92 in - Variable 1.2 mph - N/A   Clear
2:30 PM 82.4 °F 82.0 °F 57.2 °F 42% 29.92 in - SW 3.5 mph - N/A   Clear
3:00 PM 80.6 °F 80.8 °F 57.2 °F 45% 29.92 in - West 15.0 mph - N/A   Clear
3:30 PM 75.2 °F - 60.8 °F 61% 29.95 in 6.2 mi West 26.5 mph - N/A   Partly Cloudy
4:00 PM 73.4 °F - 60.8 °F 65% 29.98 in 6.2 mi West 26.5 mph - N/A   Partly Cloudy
4:30 PM 73.4 °F - 57.2 °F 57% 29.95 in - WNW 18.4 mph - N/A   Clear
5:00 PM 71 °F - 60 °F 59% 29.97 in 6 mi WNW 15.7 mph - - Thunderstorm Thunderstorm
5:00 PM 71.6 °F - 59.0 °F 64% 29.98 in 6.2 mi WNW 16.1 mph - N/A Rain , Thunderstorm Light Thunderstorms and Rain
5:30 PM 68.0 °F - 64.4 °F 88% 29.95 in 5.0 mi NNW 10.4 mph - N/A Thunderstorm Thunderstorm
6:00 PM 68.0 °F - 64.4 °F 88% 29.98 in 5.0 mi West 6.9 mph - N/A   Unknown
6:30 PM 68.0 °F - 64.4 °F 88% 29.98 in 5.0 mi West 4.6 mph - N/A   Unknown
7:00 PM 68.0 °F - 64.4 °F 88% 29.98 in 5.0 mi SW 4.6 mph - N/A   Unknown
7:30 PM 66.2 °F - 64.4 °F 94% 30.01 in 4.3 mi WSW 6.9 mph - N/A   Unknown
8:00 PM 64 °F - 63 °F 94% 30.01 in 6 mi West 6.7 mph - -   Partly Cloudy
8:00 PM 64.4 °F - 62.6 °F 94% 30.01 in - West 9.2 mph - N/A   Clear
8:30 PM 62.6 °F - 62.6 °F 100% 30.04 in - West 5.8 mph - N/A   Clear
9:00 PM 62.6 °F - 60.8 °F 94% 30.04 in - West 6.9 mph - N/A   Clear
9:30 PM 62.6 °F - 60.8 °F 94% 30.04 in - West 6.9 mph - N/A   Clear
10:00 PM 62.6 °F - 60.8 °F 94% 30.04 in - West 8.1 mph - N/A   Clear
10:30 PM 62.6 °F - 60.8 °F 94% 30.04 in - WSW 8.1 mph - N/A   Clear
11:00 PM 63 °F - 61 °F 92% 30.06 in 6 mi WSW 8.9 mph - -   Mostly Cloudy
11:00 PM 62.6 °F - 60.8 °F 94% 30.06 in - West 12.7 mph - N/A   Clear
11:30 PM 60.8 °F - 60.8 °F 100% 30.06 in - West 10.4 mph - N/A   Clear